User: anonymous   Login
Location: Unspecified
(0.0000°N, 0.0000°E)
Time: 02:05:45
(UTC+00:00)
Language:

NAVSTAR 64 (USA 206) - Orbit

View from above orbital plane
View from above orbital plane
View from above satellite
View from above satellite

Ground track
Ground track

The orbit data is extracted from the following two-line orbital elements,

1 35752U 09043A   18023.19319019  .00000041  00000-0  00000+0 0  9999
2 35752  54.2893 150.5946 0051530  34.1126 218.8504  2.00568302 61827
Epoch (UTC): 23 January 2018 04:38:11
Eccentricity: 0.0051530
inclination: 54.2893°
perigee height: 20045 km
apogee height: 20318 km
right ascension of ascending node: 150.5946°
argument of perigee: 34.1126°
revolutions per day: 2.00568302
mean anomaly at epoch: 218.8504°
orbit number at epoch: 6182

The dashed part of the orbit path shows where the satellite is in the earth's shadow,  

DLR